Regional Weather Roundup
Issued by NWS Charleston, WV

Home | Current Version | Previous Version | Graphics & Text | Print | Product List | Glossary On
Versions: 1 2 3 4 5 6 7 8 9 10 11 12 13 14 15 16 17 18 19 20 21 22 23 24 25 26 27
000
ASUS41 KRLX 280310
RWRRLX
West Virginia Regional Weather Roundup
National Weather Service Charleston WV
1100 PM EDT WED APR 27 2016

Note: "fair" indicates few or no clouds below 12,000 feet with no
significant weather and/or obstructions to visibility.

WVZ003-280400-
Northern Panhandle of West Virginia

CITY           SKY/WX    TMP DP  RH WIND       PRES   REMARKS
WHEELING         N/A     57  48  72 E3        29.87F
$$

WVZ009-280400-
Northwest West Virginia

CITY           SKY/WX    TMP DP  RH WIND       PRES   REMARKS
PARKERSBURG      N/A     62  54  74 N3        29.88R
$$

WVZ006-280400-
Western West Virginia

CITY           SKY/WX    TMP DP  RH WIND       PRES   REMARKS
HUNTINGTON       N/A     64  63  96 E5        29.82F FOG
$$

WVZ015-280400-
West Central West Virginia

CITY           SKY/WX    TMP DP  RH WIND       PRES   REMARKS
CHARLESTON     MOCLDY    65  63  93 CALM      29.85R
$$

WVZ022-031-280400-
North Central West Virginia

CITY           SKY/WX    TMP DP  RH WIND       PRES   REMARKS
CLARKSBURG       N/A     59  57  93 CALM      29.85F
MORGANTOWN       N/A     59  49  69 N5        29.87F
$$

WVZ025-035-042-045-280400-
Southern West Virginia

CITY           SKY/WX    TMP DP  RH WIND       PRES   REMARKS
BECKLEY        CLOUDY    61  57  87 SE7       29.90F
LOGAN          NOT AVBL
BLUEFIELD        N/A     62  56  80 CALM      29.94S
LEWISBURG      CLOUDY    60  59  97 CALM      29.92R
$$

WVZ047-280400-
Northern Mountains of West Virginia

CITY           SKY/WX    TMP DP  RH WIND       PRES   REMARKS
ELKINS         CLOUDY    57  54  89 CALM      29.88F FOG
$$

WVZ052-280400-
Eastern Panhandle of West Virginia

CITY           SKY/WX    TMP DP  RH WIND       PRES   REMARKS
MARTINSBURG    MOCLDY    51  50  96 CALM      29.92S FOG
PETERSBURG     MOCLDY    58  56  93 CALM      29.92S
$$




USA.gov is the U.S. government's official web portal to all federal, state and local government web resources and services.